Location: Wellington
(41.3000°S, 174.7830°E)
Time: 20:28:00
(UTC+12:00)

CZ-2D R/B - Pass Details

Date: 24 January 2019
Orbit: 523 x 538 km, 97.4° (Epoch: 19 April)

Event Time Altitude Azimuth Distance (km) Brightness Sun altitude
Rises 21:21:54 0° 170° (S) 2,737 7.2 -6.2°
Reaches altitude 10° 21:24:03 10° 170° (S) 1,837 6.3 -6.5°
Maximum altitude 21:28:01 80° 257° (WSW) 563 3.5 -7.1°
Drops below altitude 10° 21:31:56 10° 343° (NNW) 1,808 5.8 -7.7°
Sets 21:34:02 0° 344° (NNW) 2,690 6.6 -8.1°
